Tracking 28794 objects as of 19-Apr-2024
HD Live streaming from Space Station
objects crossing your sky now

COSMOS 764

Track COSMOS 764 now!
10-day predictions
COSMOS 764 is classified as:


NORAD ID: 8288
Int'l Code: 1975-086D
Perigee: 1,485.4 km
Apogee: 1,533.0 km
Inclination: 74.0 °
Period: 116.0 minutes
Semi major axis: 7880 km
RCS: 0.7209 m2 (medium)
Launch date: September 17, 1975
Source: Commonwealth of Independent States (former USSR) (CIS)
Launch site: PLESETSK MISSILE AND SPACE COMPLEX (PKMTR)
Your satellite tracking list
Your tracking list is empty




NASA's NSSDC Master Catalog

Two Line Element Set (TLE):
1 08288U 75086D   24110.64231439  .00000014  00000-0  21796-3 0  9995
2 08288  74.0072 293.9950 0030160 337.5529  94.0319 12.41073107201419
Source of the keplerian elements: AFSPC